Flag for Canada Weather past 2 weeks in Thunder Bay, Ontario, Canada

Now
34 °F

Passing clouds.


Feels Like: 34 °F
Forecast: 37 / 50 °F
Wind: No wind

Location: Thunder Bay

Current Time: Oct 22, 2014 at 3:06:36 AM

Latest Report: Oct 22, 2014 at 2:00 AM


Visibility: 15 mi

Pressure: 30.31 "Hg

Humidity: 93%

Dew point: 32 °F

Location of Thunder BayLocation

Historic Weather in Thunder Bay — Graph

°F

Thunder Bay temperature yesterday

Maximum temperature yesterday: 45 °F (at 2:00 PM)
Minimum temperature yesterday: 27 °F (at 6:00 AM)
Average temperature yesterday: 36 °F

Past Weeks' High & Low Weather Summary

 TemperatureHumidityPressure
High64 °F (Oct 14, 3:00 PM)100% (Oct 8, 2:00 AM)30.35 "Hg (Oct 8, 2:00 AM)
Low27 °F (Oct 12, 6:00 AM)37% (Oct 14, 5:00 PM)29.39 "Hg (Oct 7, 1:00 AM)
Average42 °F80%29.94 "Hg
* Reported Oct 7 1:00 AM — Oct 22 1:00 AM, Thunder Bay, Weather by CustomWeather, © 2014

Note: Actual official high and low records may vary slightly from our data, if they occured in-between our weather recording intervals... More about our weather records

Advertising

Thunder Bay weather history for previous 24 hours

 ConditionsComfort  
Time TempWeatherWind HumidityBarometerVisibility
1:00 AM
Oct 22
32 °FOvercast.2 mph100%30.32 "Hg15 mi
12:00 AM30 °FPassing clouds.No wind93%30.32 "Hg15 mi
11:00 PM
Oct 21
27 °FClear.No wind100%30.32 "Hg15 mi
10:00 PM32 °FPassing clouds.3 mph93%30.32 "Hg15 mi
9:00 PM34 °FPassing clouds.8 mph87%30.31 "Hg15 mi
8:00 PM36 °FClear.8 mph87%30.31 "Hg15 mi
7:00 PM37 °FPassing clouds.7 mph81%30.32 "Hg20 mi
6:00 PM41 °FSunny.9 mph70%30.31 "Hg20 mi
5:00 PM43 °FPassing clouds.8 mph71%30.31 "Hg20 mi
4:00 PM45 °FPassing clouds.10 mph61%30.31 "Hg20 mi
3:00 PM43 °FPassing clouds.6 mph66%30.32 "Hg20 mi
2:00 PM45 °FScattered clouds.9 mph61%30.33 "Hg20 mi
1:00 PM41 °FPartly sunny.2 mph70%30.34 "Hg20 mi
12:00 PM39 °FOvercast.No wind75%30.35 "Hg20 mi
11:45 AM39 °FOvercast.3 mph75%30.35 "Hg15 mi
11:00 AM36 °FPartly sunny.2 mph87%30.34 "Hg20 mi
10:00 AM34 °FPartly sunny.2 mph93%30.33 "Hg20 mi
9:00 AM32 °FPassing clouds.2 mph93%30.32 "Hg20 mi
8:00 AM28 °FPassing clouds.6 mph100%30.30 "Hg15 mi
7:00 AM27 °FPassing clouds.3 mph100%30.29 "Hg15 mi
6:00 AM27 °FPassing clouds.2 mph100%30.27 "Hg15 mi
5:00 AM30 °FPassing clouds.3 mph93%30.26 "Hg15 mi
4:00 AM32 °FPassing clouds.5 mph93%30.24 "Hg15 mi
3:00 AM36 °FPassing clouds.5 mph87%30.23 "Hg15 mi
Weather by CustomWeather, © 2014

See weather overviewHow to use our weather pages